Location: Newark
(45.5000°N, 11.4167°E)
Time: 09:52:52
(UTC+00:00)

A-11 Canister half - Pass Details

Date: 20 August 2019
Orbit: 1514 x 1686 km, 47.2° (Epoch: 14 September)

Event Time Altitude Azimuth Distance (km) Brightness Sun altitude
Rises 01:25:39 0° 292° (WNW) 4,864 11.5 -25.2°
Reaches altitude 10° 01:29:24 10° 281° (W) 3,897 10.9 -24.8°
Enters shadow 01:32:18 18° 267° (W) 3,288 10.4 -24.5°
Maximum altitude 01:37:09 27° 229° (SW) 2,832 - -24.0°
Drops below altitude 10° 01:45:01 10° 178° (S) 3,940 - -23.1°
Sets 01:48:52 0° 166° (SSE) 4,926 - -22.7°
